SYN001 KLAX-KSAN

Flight info

Callsign SYN001
Flight time 0h 30m
Altitude 13000
Route LAXX1 MZB
Aircraft A20N/M-SDE3FGHIRWY/LB1

Departure

Time 2026-05-06 22:22
Airport Los Angeles International Airport (KLAX)

Arrival

Time 2026-05-06 22:53
Airport San Diego International Airport (KSAN)
Time Latitude Longitude Altitude Speed Heading
2026-05-06 22:01 33.94166 -118.40392 127 ft 0 kts 259°
2026-05-06 22:12 33.94170 -118.40371 123 ft 3 kts 261°
2026-05-06 22:13 33.94175 -118.40348 124 ft 3 kts 236°
2026-05-06 22:13 33.94189 -118.40331 122 ft 3 kts 204°
2026-05-06 22:13 33.94197 -118.40327 123 ft 0 kts 187°
2026-05-06 22:15 33.94191 -118.40328 122 ft 1 kts 187°
2026-05-06 22:15 33.94172 -118.40330 125 ft 6 kts 180°
2026-05-06 22:15 33.94073 -118.40319 125 ft 20 kts 173°
2026-05-06 22:15 33.93934 -118.40297 125 ft 20 kts 172°
2026-05-06 22:16 33.93858 -118.40231 126 ft 14 kts 95°
2026-05-06 22:16 33.93867 -118.40116 125 ft 15 kts 83°
2026-05-06 22:16 33.93884 -118.39950 126 ft 25 kts 83°
2026-05-06 22:16 33.93906 -118.39737 127 ft 26 kts 83°
2026-05-06 22:17 33.93928 -118.39519 125 ft 26 kts 83°
2026-05-06 22:17 33.93949 -118.39300 127 ft 27 kts 83°
2026-05-06 22:17 33.93971 -118.39077 125 ft 27 kts 82°
2026-05-06 22:17 33.93995 -118.38850 127 ft 28 kts 84°
2026-05-06 22:18 33.94020 -118.38623 126 ft 28 kts 82°
2026-05-06 22:18 33.94035 -118.38467 126 ft 14 kts 83°
2026-05-06 22:18 33.94044 -118.38382 127 ft 7 kts 83°
2026-05-06 22:18 33.94051 -118.38313 125 ft 12 kts 83°
2026-05-06 22:19 33.94066 -118.38177 127 ft 21 kts 83°
2026-05-06 22:19 33.94076 -118.38091 127 ft 0 kts 82°
2026-05-06 22:19 33.94077 -118.38079 127 ft 3 kts 82°
2026-05-06 22:19 33.94070 -118.38021 127 ft 5 kts 128°
2026-05-06 22:20 33.94069 -118.38020 125 ft 0 kts 128°
2026-05-06 22:20 33.94055 -118.38007 126 ft 8 kts 150°
2026-05-06 22:20 33.93999 -118.38021 127 ft 9 kts 220°
2026-05-06 22:21 33.93978 -118.38090 127 ft 9 kts 263°
2026-05-06 22:21 33.93975 -118.38121 127 ft 0 kts 263°
2026-05-06 22:21 33.93975 -118.38126 127 ft 2 kts 263°
2026-05-06 22:22 33.93958 -118.38299 127 ft 49 kts 263°
2026-05-06 22:22 33.93897 -118.38924 128 ft 101 kts 263°
2026-05-06 22:22 33.93792 -118.39913 241 ft 130 kts 262°
2026-05-06 22:22 33.93688 -118.40966 787 ft 131 kts 262°
2026-05-06 22:23 33.93585 -118.42108 1274 ft 138 kts 263°
2026-05-06 22:23 33.93301 -118.43233 1855 ft 147 kts 237°
2026-05-06 22:23 33.92695 -118.44212 2650 ft 145 kts 233°
2026-05-06 22:23 33.92031 -118.45201 3066 ft 157 kts 232°
2026-05-06 22:24 33.91337 -118.46225 3546 ft 166 kts 232°
2026-05-06 22:24 33.90579 -118.47342 3901 ft 182 kts 232°
2026-05-06 22:24 33.89746 -118.48567 4254 ft 197 kts 232°
2026-05-06 22:24 33.88838 -118.49899 4612 ft 213 kts 232°
2026-05-06 22:25 33.87877 -118.51305 5095 ft 219 kts 232°
2026-05-06 22:25 33.86894 -118.52744 5614 ft 224 kts 232°
2026-05-06 22:25 33.85876 -118.54239 5989 ft 240 kts 232°
2026-05-06 22:25 33.84788 -118.55836 6375 ft 255 kts 232°
2026-05-06 22:26 33.83521 -118.57465 6804 ft 278 kts 215°
2026-05-06 22:26 33.81659 -118.58223 7441 ft 291 kts 183°
2026-05-06 22:26 33.79630 -118.58309 8328 ft 294 kts 180°
2026-05-06 22:26 33.77594 -118.58377 9206 ft 298 kts 180°
2026-05-06 22:27 33.75505 -118.58456 10078 ft 303 kts 180°
2026-05-06 22:27 33.73372 -118.58541 10748 ft 312 kts 180°
2026-05-06 22:27 33.71172 -118.58622 11512 ft 313 kts 180°
2026-05-06 22:27 33.69744 -118.58583 12236 ft 307 kts 168°
2026-05-06 22:28 33.67818 -118.57617 13008 ft 307 kts 141°
2026-05-06 22:28 33.66428 -118.55609 13176 ft 317 kts 112°
2026-05-06 22:28 33.65965 -118.53104 13148 ft 302 kts 91°
2026-05-06 22:28 33.65844 -118.50607 13114 ft 301 kts 90°
2026-05-06 22:29 33.65732 -118.48087 13101 ft 303 kts 90°
2026-05-06 22:29 33.65621 -118.45570 13098 ft 302 kts 90°
2026-05-06 22:29 33.65512 -118.43052 13101 ft 302 kts 90°
2026-05-06 22:29 33.65401 -118.40527 13096 ft 302 kts 90°
2026-05-06 22:30 33.65291 -118.38013 13095 ft 302 kts 90°
2026-05-06 22:30 33.65182 -118.35490 13096 ft 302 kts 90°
2026-05-06 22:30 33.65073 -118.32962 13098 ft 303 kts 90°
2026-05-06 22:30 33.64965 -118.30448 13094 ft 303 kts 90°
2026-05-06 22:31 33.64859 -118.27950 13095 ft 302 kts 90°
2026-05-06 22:31 33.64749 -118.25393 13094 ft 303 kts 90°
2026-05-06 22:31 33.64640 -118.22901 13097 ft 303 kts 90°
2026-05-06 22:31 33.64531 -118.20371 13088 ft 303 kts 90°
2026-05-06 22:32 33.64421 -118.17839 13084 ft 303 kts 90°
2026-05-06 22:32 33.63961 -118.15371 13065 ft 309 kts 115°
2026-05-06 22:32 33.62612 -118.13342 13091 ft 313 kts 132°
2026-05-06 22:32 33.61008 -118.11554 13077 ft 315 kts 138°
2026-05-06 22:33 33.59341 -118.09899 13068 ft 315 kts 138°
2026-05-06 22:33 33.57673 -118.08198 13089 ft 314 kts 135°
2026-05-06 22:33 33.56112 -118.06363 13098 ft 314 kts 131°
2026-05-06 22:33 33.54622 -118.04441 13053 ft 315 kts 130°
2026-05-06 22:34 33.53173 -118.02476 12998 ft 313 kts 129°
2026-05-06 22:34 33.51746 -118.00495 12977 ft 313 kts 128°
2026-05-06 22:34 33.50324 -117.98507 12977 ft 314 kts 128°
2026-05-06 22:34 33.48907 -117.96520 12971 ft 314 kts 128°
2026-05-06 22:35 33.47505 -117.94550 12972 ft 314 kts 128°
2026-05-06 22:35 33.46089 -117.92558 12971 ft 314 kts 128°
2026-05-06 22:35 33.44648 -117.90527 12986 ft 331 kts 128°
2026-05-06 22:35 33.43108 -117.88353 12976 ft 349 kts 128°
2026-05-06 22:36 33.41546 -117.86154 12966 ft 342 kts 128°
2026-05-06 22:36 33.40023 -117.84008 12971 ft 344 kts 128°
2026-05-06 22:36 33.38462 -117.81808 12968 ft 345 kts 128°
2026-05-06 22:36 33.36912 -117.79626 12965 ft 344 kts 128°
2026-05-06 22:37 33.35360 -117.77441 12964 ft 345 kts 128°
2026-05-06 22:37 33.33806 -117.75252 12964 ft 345 kts 129°
2026-05-06 22:37 33.32251 -117.73063 12966 ft 346 kts 129°
2026-05-06 22:37 33.30710 -117.70894 12964 ft 346 kts 129°
2026-05-06 22:38 33.29134 -117.68676 12959 ft 345 kts 129°
2026-05-06 22:38 33.27574 -117.66484 12965 ft 347 kts 129°
2026-05-06 22:38 33.26029 -117.64313 12964 ft 346 kts 129°
2026-05-06 22:38 33.24463 -117.62114 12962 ft 347 kts 129°
2026-05-06 22:39 33.22897 -117.59916 12960 ft 347 kts 129°
2026-05-06 22:39 33.21340 -117.57731 12959 ft 346 kts 129°
2026-05-06 22:39 33.19771 -117.55531 12967 ft 347 kts 129°
2026-05-06 22:39 33.18208 -117.53343 12964 ft 347 kts 129°
2026-05-06 22:40 33.16642 -117.51149 12962 ft 347 kts 129°
2026-05-06 22:40 33.15072 -117.48952 12965 ft 347 kts 129°
2026-05-06 22:40 33.13524 -117.46786 12967 ft 347 kts 129°
2026-05-06 22:40 33.11954 -117.44592 12970 ft 347 kts 129°
2026-05-06 22:41 33.08816 -117.40210 12976 ft 347 kts 129°
2026-05-06 22:41 33.07245 -117.38019 12977 ft 347 kts 130°
2026-05-06 22:41 33.05677 -117.35832 12974 ft 347 kts 130°
2026-05-06 22:42 33.03936 -117.33829 12696 ft 353 kts 139°
2026-05-06 22:42 33.02100 -117.31980 12167 ft 346 kts 140°
2026-05-06 22:42 33.00287 -117.30136 11705 ft 337 kts 139°
2026-05-06 22:42 32.98545 -117.28318 11278 ft 327 kts 139°
2026-05-06 22:43 32.96858 -117.26543 10871 ft 319 kts 139°
2026-05-06 22:43 32.95215 -117.24809 10453 ft 312 kts 139°
2026-05-06 22:43 32.93597 -117.23100 10047 ft 306 kts 139°
2026-05-06 22:43 32.92035 -117.21446 9621 ft 303 kts 139°
2026-05-06 22:44 32.90474 -117.19792 9203 ft 297 kts 139°
2026-05-06 22:44 32.88946 -117.18174 8823 ft 289 kts 139°
2026-05-06 22:44 32.87493 -117.16633 8456 ft 277 kts 139°
2026-05-06 22:44 32.86080 -117.15135 8099 ft 267 kts 139°
2026-05-06 22:45 32.84703 -117.13675 7755 ft 265 kts 139°
2026-05-06 22:45 32.83325 -117.12215 7419 ft 265 kts 139°
2026-05-06 22:45 32.81949 -117.10749 7061 ft 266 kts 138°
2026-05-06 22:45 32.80569 -117.09281 6705 ft 266 kts 139°
2026-05-06 22:46 32.79203 -117.07834 6342 ft 264 kts 139°
2026-05-06 22:46 32.78073 -117.06224 6001 ft 245 kts 115°
2026-05-06 22:46 32.77469 -117.04397 5772 ft 235 kts 108°
2026-05-06 22:46 32.76973 -117.02544 5562 ft 233 kts 107°
2026-05-06 22:47 32.76520 -117.00796 5395 ft 227 kts 107°
2026-05-06 22:47 32.76074 -116.98998 5230 ft 223 kts 106°
2026-05-06 22:47 32.75492 -116.97302 4983 ft 224 kts 126°
2026-05-06 22:47 32.74369 -116.96054 4719 ft 222 kts 152°
2026-05-06 22:48 32.72934 -116.95468 4457 ft 218 kts 176°
2026-05-06 22:48 32.71451 -116.95608 4220 ft 212 kts 200°
2026-05-06 22:48 32.70167 -116.96414 3963 ft 207 kts 222°
2026-05-06 22:48 32.69262 -116.97713 3735 ft 205 kts 243°
2026-05-06 22:49 32.68844 -116.99313 3483 ft 207 kts 265°
2026-05-06 22:49 32.68984 -117.01015 3259 ft 210 kts 284°
2026-05-06 22:49 32.69399 -117.02691 3487 ft 205 kts 286°
2026-05-06 22:49 32.69792 -117.04269 3292 ft 191 kts 285°
2026-05-06 22:50 32.70151 -117.05760 2948 ft 186 kts 285°
2026-05-06 22:50 32.70505 -117.07236 2512 ft 185 kts 286°
2026-05-06 22:50 32.70861 -117.08697 2111 ft 181 kts 286°
2026-05-06 22:50 32.71203 -117.10096 1793 ft 173 kts 286°
2026-05-06 22:51 32.71532 -117.11443 1474 ft 166 kts 286°
2026-05-06 22:51 32.71846 -117.12734 1223 ft 159 kts 285°
2026-05-06 22:51 32.72141 -117.13954 1000 ft 153 kts 286°
2026-05-06 22:51 32.72422 -117.15130 767 ft 144 kts 286°
2026-05-06 22:52 32.72698 -117.16262 446 ft 142 kts 288°
2026-05-06 22:52 32.72968 -117.17378 163 ft 140 kts 288°
2026-05-06 22:52 32.73225 -117.18435 36 ft 125 kts 288°
2026-05-06 22:52 32.73427 -117.19263 25 ft 77 kts 285°
2026-05-06 22:53 32.73526 -117.19681 31 ft 35 kts 285°
2026-05-06 22:53 32.73501 -117.19858 30 ft 6 kts 249°
2026-05-06 22:53 32.73492 -117.19885 29 ft 0 kts 249°
2026-05-06 22:53 32.73490 -117.19891 29 ft 2 kts 249°
2026-05-06 22:54 32.73481 -117.19917 29 ft 5 kts 244°
2026-05-06 22:54 32.73443 -117.19954 29 ft 10 kts 198°
2026-05-06 22:54 32.73362 -117.19980 29 ft 13 kts 194°
2026-05-06 22:54 32.73310 -117.20006 28 ft 9 kts 231°
2026-05-06 22:55 32.73304 -117.20060 28 ft 3 kts 275°
2026-05-06 22:55 32.73304 -117.20062 28 ft 0 kts 275°